Regional Weather Roundup
Issued by NWS

Home | Current Version | Previous Version | Graphics & Text | Print | Product List | Glossary On
Versions: 1 2 3 4 5 6 7 8 9 10 11 12 13 14 15 16 17 18 19 20 21 22 23 24 25 26 27 28 29 30 31 32 33 34 35 36 37 38 39 40 41 42 43 44 45 46 47 48 49 50
000
ASUS43 KIND 230359
RWRIN

WEATHER ROUNDUP FOR INDIANA
NATIONAL WEATHER SERVICE INDIANAPOLIS IN
1100 PM EST SUN JAN 22 2017

NOTE: "FAIR" INDICATES FEW OR NO CLOUDS BELOW 12,000 FEET WITH NO
SIGNIFICANT WEATHER AND/OR OBSTRUCTIONS TO VISIBILITY.

* - STATION DOES NOT REPORT WEATHER SUCH AS PRECIPITATION OR FOG.

+ - STATION NOT QUALITY CONTROLLED BY THE NATIONAL WEATHER SERVICE.
    USE DATA WITH CAUTION...ESPECIALLY DEWPOINT AND RELATIVE
    HUMIDITY OBSERVATIONS.

INZ001>003-010>013-019-020-230500-
NORTHWEST INDIANA

CITY           SKY/WX    TMP DP  RH WIND       PRES   REMARKS
MONTICELLO +   CLOUDY    43  42  95 N7        29.62S FOG

$$

LMZ046-743>745-230500-
SOUTHERN LAKE MICHIGAN

STATION/POSITION TIME  TEMP    WIND        PRES    WAVE
                       AIR SEA DIR/SP/G            HT
                 (UTC) (F)     (DEG/KT/KT) (MB)    (FT)
BURNS HARBOR     0340   36      10/  9/ 10 1005.4R
MICHIGAN CITY    0330   37      10/ 10/ 11   N/A

$$

INZ004-005-014>016-021>024-230500-
NORTH CENTRAL INDIANA

CITY           SKY/WX    TMP DP  RH WIND       PRES   REMARKS
GOSHEN         FOG       43  41  93 N7        29.62F VSB 1/2
PERU/GRISSOM   CLOUDY    46  46 100 N9        29.57F
SOUTH BEND     FOG       40  40 100 N6        29.65S VSB 3/4

$$

INZ006>009-017-018-025>027-230500-
NORTHEAST INDIANA

CITY           SKY/WX    TMP DP  RH WIND       PRES   REMARKS
ANGOLA *+      CLOUDY    46  32  57 CALM      29.62S
FORT WAYNE     CLOUDY    49  46  90 NE13      29.59S FOG
KENDALLVILLE + CLOUDY    46  46 100 NE5       29.62S FOG

$$

INZ028-029-035-036-043>045-051>053-230500-
WEST CENTRAL INDIANA

CITY           SKY/WX    TMP DP  RH WIND       PRES   REMARKS
CRAWFORDSVL +  CLOUDY    43  43 100 N14       29.57F FOG
LAFAYETTE      CLOUDY    43  43 100 N8        29.60S FOG
TERRE HAUTE    CLOUDY    48  45  89 N15       29.55S

$$

INZ030>032-037>040-046>048-054>057-064-065-230500-
CENTRAL INDIANA

CITY           SKY/WX    TMP DP  RH WIND       PRES   REMARKS
INDIANAPOLIS   CLOUDY    51  47  86 N16       29.52S
-EAGLE CREEK   CLOUDY    51  46  83 N13       29.53S
KOKOMO +       CLOUDY    48  47  96 N13       29.58F FOG
MT COMFORT *+  CLOUDY    50  48  93 N13       29.52S
SHELBYVILLE    CLOUDY    53  49  86 N12       29.49S

$$

INZ033-034-041-042-049-050-058-059-230500-
EAST CENTRAL INDIANA

CITY           SKY/WX    TMP DP  RH WIND       PRES   REMARKS
MUNCIE         CLOUDY    50  47  89 NE15      29.55S

$$

INZ060-061-067>069-081>083-085>088-230500-
SOUTHWEST INDIANA

CITY           SKY/WX    TMP DP  RH WIND       PRES   REMARKS
EVANSVILLE     PTCLDY    53  48  83 N13       29.47R
HUNTINGBURG *+ PTCLDY    55  52  88 N14       29.45R

$$

INZ062-063-066-070>080-084-089>092-230500-
SOUTH CENTRAL AND SOUTHEAST INDIANA

CITY           SKY/WX    TMP DP  RH WIND       PRES   REMARKS
BLOOMINGTON    CLEAR     52  48  86 N12       29.49S
MADISON *+     CLOUDY    55  46  71 N6        29.44S
SEYMOUR +      CLOUDY    57  52  82 N14       29.45S

$$





USA.gov is the U.S. government's official web portal to all federal, state and local government web resources and services.